Location: Krakow
(50.0830°N, 19.9170°E)
Time: 07:12:38
(UTC+02:00)

A-11 Canister half - Pass Details

Date: 19 March 2026
Orbit: 1523 x 1684 km, 47.3° (Epoch: 18 April)

Event Time Altitude Azimuth Distance (km) Brightness Sun altitude
Rises 09:36:56 0° 247° (WSW) 4,889 11.5 32.2°
Reaches altitude 10° 09:40:07 10° 245° (WSW) 3,885 11.1 32.5°
Maximum altitude 09:49:55 69° 165° (SSE) 1,698 10.3 33.5°
Drops below altitude 10° 09:59:24 10° 85° (E) 3,763 11.5 34.4°
Sets 10:02:26 0° 83° (E) 4,729 11.9 34.6°
